Location: Berlise
(49.6641°N, 4.1077°E)
Time: 02:26:22
(UTC+00:00)

CZ-2C R/B - Pass Details

Date: 27 January 2021
Orbit: 785 x 870 km, 98.2° (Epoch: 28 February)

Event Time Altitude Azimuth Distance (km) Brightness Sun altitude
Rises 04:55:23 0° 134° (SE) 3,305 6.5 -23.7°
Reaches altitude 10° 04:57:52 10° 126° (SE) 2,390 5.8 -23.3°
Maximum altitude 05:02:33 33° 63° (ENE) 1,345 4.2 -22.5°
Drops below altitude 10° 05:07:21 10° 1° (N) 2,453 5.1 -21.8°
Sets 05:09:56 0° 352° (N) 3,406 5.7 -21.3°
